YB3RDW-13 Weather Reports


time (UTC)temp
F
wind
direction
speed
knots
gust
knots
rain 1hr
in
rain 24hr
in
rain mn
in
humidity
%
barometer
mb
20260504205157 80 141 2.6 2.6 0.00 0.00 0.00 94 1011.0
20260504204657 80 143 1.7 1.7 0.00 0.00 0.00 94 1011.0
20260504204158 80 169 2.6 4.3 0.00 0.00 0.00 94 1011.0
20260504203657 80 120 3.5 4.3 0.00 0.00 0.00 94 1011.0
20260504203158 80 153 2.6 4.3 0.00 0.00 0.00 94 1011.0
20260504202657 80 133 4.3 4.3 0.00 0.00 0.00 94 1011.0
20260504202157 80 152 1.7 1.7 0.00 0.00 0.00 94 1011.0
20260504201658 80 132 0.9 0.9 0.00 0.00 0.00 94 1011.0
20260504201157 80 158 1.7 1.7 0.00 0.00 0.00 95 1011.0
20260504200658 80 111 1.7 1.7 0.00 0.00 0.00 95 1011.0
20260504200157 80 148 1.7 1.7 0.00 0.00 0.00 95 1011.0
20260504195657 80 150 2.6 2.6 0.00 0.00 0.00 95 1011.0
20260504195157 80 137 0.9 0.9 0.00 0.00 0.00 95 1011.0
20260504194658 80 155 0.9 1.7 0.00 0.00 0.00 95 1011.0
20260504194157 80 160 0.0 0.9 0.00 0.00 0.00 95 1011.0
20260504193657 80 129 4.3 5.2 0.00 0.00 0.00 95 1011.0
20260504193157 80 123 4.3 5.2 0.00 0.00 0.00 95 1011.0
20260504192657 80 132 2.6 2.6 0.00 0.00 0.00 95 1011.0
20260504192159 80 140 2.6 4.3 0.00 0.00 0.00 95 1011.0
20260504191657 80 138 1.7 1.7 0.00 0.00 0.00 95 1011.0
20260504191157 80 128 2.6 2.6 0.00 0.00 0.00 93 1012.0
20260504190658 81 105 0.9 1.7 0.00 0.00 0.00 92 1011.0
20260504190157 81 147 0.9 0.9 0.00 0.00 0.00 91 1011.0
20260504185700 81 151 0.9 0.9 0.00 0.00 0.00 91 1012.0
20260504185158 81 154 0.9 0.9 0.00 0.00 0.00 91 1012.0
20260504184657 82 147 0.0 0.0 0.00 0.00 0.00 90 1011.0
20260504184158 82 150 0.9 0.9 0.00 0.00 0.00 90 1012.0
20260504183658 82 155 0.9 0.9 0.00 0.00 0.00 90 1012.0
20260504183158 82 153 0.9 0.9 0.00 0.00 0.00 89 1012.0
20260504182657 82 137 1.7 1.7 0.00 0.00 0.00 88 1012.0
20260504182157 83 155 0.9 0.9 0.00 0.00 0.00 87 1012.0
20260504181658 83 167 0.0 0.0 0.00 0.00 0.00 87 1012.0
20260504181157 83 169 0.0 0.0 0.00 0.00 0.00 87 1012.0
20260504180658 83 179 0.9 1.7 0.00 0.00 0.00 87 1012.0
20260504180157 83 190 0.9 1.7 0.00 0.00 0.00 87 1012.0
20260504175658 83 176 0.0 0.0 0.00 0.00 0.00 87 1012.0
20260504175158 83 179 0.9 1.7 0.00 0.00 0.00 86 1012.0
20260504174657 83 182 0.9 1.7 0.00 0.00 0.00 86 1012.0
20260504174159 83 170 0.0 0.0 0.00 0.00 0.00 86 1012.0
20260504173657 83 195 2.6 2.6 0.00 0.00 0.00 86 1012.0
20260504173157 83 168 0.9 0.9 0.00 0.00 0.00 86 1012.0
20260504172659 83 183 0.9 0.9 0.00 0.00 0.00 86 1012.0
20260504172157 83 174 0.9 0.9 0.00 0.00 0.00 86 1012.0
20260504171658 83 178 0.9 1.7 0.00 0.00 0.00 86 1012.0
20260504171158 83 179 1.7 1.7 0.00 0.00 0.00 86 1012.0
20260504170658 83 169 0.9 1.7 0.00 0.00 0.00 86 1013.0
20260504170158 83 173 0.0 0.0 0.00 0.00 0.00 85 1013.0
20260504160157 84 188 1.7 1.7 0.00 0.00 0.00 84 1013.0
20260504150658 85 270 2.6 4.3 0.00 0.00 0.00 84 1013.0
20260504150158 85 281 2.6 2.6 0.00 0.00 0.00 84 1013.0
20260504141157 85 167 0.9 0.9 0.00 0.00 0.00 80 1013.0
20260504140658 85 216 1.7 1.7 0.00 0.00 0.00 80 1013.0
20260504140157 85 275 3.5 4.3 0.00 0.00 0.00 80 1013.0
20260504130700 86 280 3.5 4.3 0.00 0.00 0.00 80 1013.0
20260504130158 86 314 3.5 6.1 0.00 0.00 0.00 80 1013.0
20260504120159 86 226 1.7 1.7 0.00 0.00 0.00 76 1012.0
20260504110658 87 265 2.6 2.6 0.00 0.00 0.00 74 1011.0
20260504110157 87 175 1.7 1.7 0.00 0.00 0.00 73 1012.0
20260504100158 88 218 2.6 4.3 0.00 0.00 0.00 69 1011.0
20260504081657 92 290 4.3 6.1 0.00 0.00 0.00 62 1009.0
20260504081157 92 273 2.6 4.3 0.00 0.00 0.00 61 1010.0
20260504080657 92 192 3.5 4.3 0.00 0.00 0.00 59 1010.0
20260504080157 92 258 2.6 6.1 0.00 0.00 0.00 60 1009.0
20260504070157 92 297 4.3 5.2 0.00 0.00 0.00 58 1010.0
20260504060158 92 302 7.0 7.0 0.00 0.00 0.00 59 1011.0
20260504050657 92 238 7.8 7.8 0.00 0.00 0.00 61 1012.0
20260504050157 92 292 6.1 7.8 0.00 0.00 0.00 63 1012.0
20260504045658 92 310 5.2 6.1 0.00 0.00 0.00 63 1012.0
20260504045157 92 274 4.3 5.2 0.00 0.00 0.00 64 1012.0
20260504044657 92 285 5.2 7.0 0.00 0.00 0.00 64 1012.0
20260504044158 92 291 5.2 6.1 0.00 0.00 0.00 65 1012.0
20260504043658 91 223 4.3 6.1 0.00 0.00 0.00 65 1012.0
20260504043158 91 215 1.7 1.7 0.00 0.00 0.00 65 1012.0
20260504042657 92 272 6.1 7.0 0.00 0.00 0.00 65 1012.0
20260504042157 91 255 4.3 5.2 0.00 0.00 0.00 66 1013.0
20260504041658 91 320 2.6 4.3 0.00 0.00 0.00 68 1012.0
20260504041200 90 264 4.3 5.2 0.00 0.00 0.00 68 1012.0
20260504040657 91 315 6.1 7.0 0.00 0.00 0.00 68 1012.0
20260504040157 91 295 2.6 4.3 0.00 0.00 0.00 67 1013.0
20260504035657 91 290 3.5 4.3 0.00 0.00 0.00 68 1013.0
20260504035157 91 206 1.7 1.7 0.00 0.00 0.00 67 1013.0
20260504034658 91 270 6.1 7.0 0.00 0.00 0.00 67 1013.0
20260504034157 90 239 3.5 4.3 0.00 0.00 0.00 70 1013.0
20260504033657 89 176 2.6 2.6 0.00 0.00 0.00 74 1013.0
20260504033158 90 207 1.7 2.6 0.00 0.00 0.00 73 1013.0
20260504032657 90 165 0.9 0.9 0.00 0.00 0.00 72 1013.0
20260504032157 89 213 1.7 1.7 0.00 0.00 0.00 73 1013.0
20260504031657 89 162 4.3 5.2 0.00 0.00 0.00 74 1013.0
20260504031157 89 205 2.6 2.6 0.00 0.00 0.00 74 1014.0
20260504030658 89 202 6.1 7.8 0.00 0.00 0.00 74 1014.0
20260504030158 90 241 6.1 6.1 0.00 0.00 0.00 72 1014.0
20260504025658 89 192 1.7 1.7 0.00 0.00 0.00 75 1014.0
20260504025158 88 192 1.7 1.7 0.00 0.00 0.00 77 1014.0
20260504024700 89 177 4.3 6.1 0.00 0.00 0.00 76 1014.0
20260504024157 88 161 0.9 1.7 0.00 0.00 0.00 78 1014.0
20260504023657 87 194 0.9 1.7 0.00 0.00 0.00 78 1014.0
20260504023157 88 197 4.3 4.3 0.00 0.00 0.00 76 1014.0
20260504022657 88 181 0.9 0.9 0.00 0.00 0.00 77 1014.0
20260504022157 88 157 1.7 2.6 0.00 0.00 0.00 77 1014.0
20260504021657 88 271 3.5 4.3 0.00 0.00 0.00 77 1014.0
20260504021157 88 191 1.7 1.7 0.00 0.00 0.00 77 1014.0
20260504020657 87 204 2.6 2.6 0.00 0.00 0.00 79 1014.0
20260504020157 88 132 0.0 0.0 0.00 0.00 0.00 77 1014.0
20260504015657 88 211 0.9 1.7 0.00 0.00 0.00 78 1014.0
20260504015157 86 193 0.9 0.9 0.00 0.00 0.00 81 1014.0
20260504014657 86 158 0.9 1.7 0.00 0.00 0.00 81 1014.0
20260504014158 86 194 2.6 2.6 0.00 0.00 0.00 82 1014.0
20260504013657 85 157 0.9 0.9 0.00 0.00 0.00 83 1014.0
20260504013157 85 145 0.9 0.9 0.00 0.00 0.00 84 1014.0
20260504012658 85 170 1.7 1.7 0.00 0.00 0.00 84 1014.0
20260504012157 84 172 0.9 0.9 0.00 0.00 0.00 87 1014.0
20260504011658 84 151 2.6 2.6 0.00 0.00 0.00 85 1014.0
20260504011157 84 167 0.9 0.9 0.00 0.00 0.00 85 1014.0
20260504010657 83 148 3.5 4.3 0.00 0.00 0.00 85 1014.0
20260504010157 83 175 0.9 1.7 0.00 0.00 0.00 87 1014.0
20260504005657 83 150 1.7 1.7 0.00 0.00 0.00 87 1014.0
20260504005157 82 177 3.5 4.3 0.00 0.00 0.00 88 1013.0
20260504004657 82 153 1.7 2.6 0.00 0.00 0.00 89 1014.0
20260504004157 82 169 1.7 1.7 0.00 0.00 0.00 90 1013.0
20260504003657 82 181 2.6 4.3 0.00 0.00 0.00 89 1014.0
20260504003157 82 164 2.6 2.6 0.00 0.00 0.00 89 1013.0
20260504002657 82 158 2.6 2.6 0.00 0.00 0.00 89 1013.0
20260504002157 82 177 2.6 2.6 0.00 0.00 0.00 90 1013.0
20260504001657 81 164 0.9 0.9 0.00 0.00 0.00 91 1013.0
20260504001158 81 135 2.6 2.6 0.00 0.00 0.00 91 1013.0
20260504000657 81 169 0.0 0.0 0.00 0.00 0.00 93 1013.0
20260504000157 80 137 1.7 1.7 0.00 0.00 0.00 92 1013.0
20260503235657 80 158 0.9 1.7 0.00 0.00 0.00 93 1013.0
20260503235159 80 158 3.5 4.3 0.00 0.00 0.00 93 1013.0
20260503234657 80 149 0.9 1.7 0.00 0.00 0.00 93 1013.0
20260503234157 80 146 1.7 1.7 0.00 0.00 0.00 93 1013.0
20260503233657 80 141 2.6 2.6 0.00 0.00 0.00 93 1013.0
20260503233157 80 150 0.9 0.9 0.00 0.00 0.00 93 1013.0
20260503232657 80 156 0.0 0.0 0.00 0.00 0.00 93 1013.0
20260503232157 80 161 0.0 0.0 0.00 0.00 0.00 94 1013.0
20260503231657 80 156 0.0 0.0 0.00 0.00 0.00 94 1013.0
20260503231157 80 141 0.9 1.7 0.00 0.00 0.00 94 1013.0
20260503230657 79 160 0.0 0.0 0.00 0.00 0.00 94 1013.0
20260503230158 79 120 0.0 0.0 0.00 0.00 0.00 94 1013.0
20260503225703 79 143 0.0 0.0 0.00 0.00 0.00 95 1013.0
20260503225157 79 126 2.6 2.6 0.00 0.00 0.00 95 1013.0
20260503224657 79 140 1.7 1.7 0.00 0.00 0.00 95 1013.0
20260503224157 80 151 0.0 0.9 0.00 0.00 0.00 95 1012.0
20260503223657 80 147 1.7 1.7 0.00 0.00 0.00 95 1012.0
20260503223157 80 138 1.7 1.7 0.00 0.00 0.00 94 1012.0
20260503222657 80 148 0.9 0.9 0.00 0.00 0.00 94 1012.0
20260503222157 80 154 0.0 0.0 0.00 0.00 0.00 94 1012.0
20260503221657 80 158 0.0 0.0 0.00 0.00 0.00 94 1012.0
20260503221157 80 159 0.9 0.9 0.00 0.00 0.00 94 1012.0
20260503220657 80 167 0.9 1.7 0.00 0.00 0.00 93 1012.0
20260503220158 80 167 0.0 0.0 0.00 0.00 0.00 93 1012.0
20260503215657 80 170 0.0 0.0 0.00 0.00 0.00 93 1012.0
20260503215157 80 165 0.0 0.0 0.00 0.00 0.00 93 1012.0
20260503214657 80 165 0.0 0.0 0.00 0.00 0.00 93 1012.0
20260503214157 80 168 0.0 0.0 0.00 0.00 0.00 93 1012.0
20260503213657 80 177 0.0 0.0 0.00 0.00 0.00 93 1012.0
20260503213157 80 165 0.0 0.0 0.00 0.00 0.00 93 1012.0
20260503212657 80 166 0.0 0.0 0.00 0.00 0.00 93 1012.0
20260503212157 80 147 0.0 0.0 0.00 0.00 0.00 93 1012.0
20260503211657 80 181 0.0 0.0 0.00 0.00 0.00 94 1012.0
20260503211157 80 171 0.0 0.0 0.00 0.00 0.00 94 1012.0
20260503210657 80 182 0.0 0.0 0.00 0.00 0.00 94 1011.0
20260503210158 80 131 0.0 0.0 0.00 0.00 0.00 93 1011.0
20260503205658 80 158 0.0 0.0 0.00 0.00 0.00 93 1011.0